Showing default

COSMOS 88, 1586

Orbit data source: Space-Track

COSMOS 88, 1586 is a payload satellite in LEO that was launched on Sat, 18 Sep 1965 UTC via a KOSMOS 65S3 launch vehicle from the Tyuratam Missile And Space Complex (TTMTR). Payload-class satellites include a variety of spacecraft equipped with specific instruments for various scientific and technological missions. These include communications satellites like Starlink; space stations such as the ISS; scientific satellites like the Hubble; Earth observation satellites from companies like Planet Labs, Umbra, and HawkEye 360; GPS; miniature CubeSats for education and research; and military/defense satellites.

Loading next visibility...
Identifier
1586, 1965-073C
Orbit
LEO
Last TLE update
18 hours ago
Origin
Manufacturer
OKB-10
Mission
Defense Communications
Bus & Motor
STRELA-1 11F610, Unknown motor
Mass
50 kg wet, 50 kg dry
Launch date (UTC)
1965-09-18 (60 years ago)
Launch vehicle
KOSMOS 65S3
Launch site
Tyuratam Missile And Space Complex (TTMTR)
Object type
Payload
Rocket body
Debris
Shape & HBR
Poly, 0.8 m
Radar Cross Section
0.731 m², Medium (>0.1 m² and < 1m²)

Expand to show TLE details & history

TLE from 18 hours ago
0 COSMOS 88
1 01586U 65073C   25141.28588497 -.00000088  00000-0  39711-4 0  9997
2 01586  56.0622 347.7377 0188091   6.7255 171.4165 12.43339680709755
Epoch: 2025-05-21T06:51Z
TLE epoch observation values (Epoch: 2025-05-21T06:51:40.461Z)
Latitude
1.21255°
Longitude
-175.16506°
Altitude
1,639.824 km
Speed
6.987 km/s
True Right ascension
11h 07m 42s
True Declination
1° 12' 22"
Sunlit
Object was in daylight at epoch
Visualization orbit readout
Latitude
-8.9675°
Longitude
-2.4501°
Altitude
1,354.408 km
Speed
7.245 km/s
Apparent Right ascension
22h 26m 42s
Apparent Declination
-22° 50' 26"
Sunlit
Object is in daylight
Visualization observer readout
Local Sidereal Time
10:08:12
Azimuth
345.709° N
Elevation
-72.481°
Doppler factor
1
Orbital elements
Apogee altitude
1,640.336 km
Perigee altitude
1,344.265 km
Semi-major axis
7,870.438 km
Eccentricity
0.01881
Inclination
56.0622°
RAAN
347.7377°
Arg. of periapsis
6.7255°
True anomaly
Unknown
Mean anomaly
171.4165°
Eccentric anomaly
Unknown
Mean motion
3.10846 °/min
Orbital period
115.81 mins
BSTAR
0.000039711
Loading maneuver chart data...
Loading SW <> Apogee altitude chart data...
Loading historical data...
Loading historical data...
Loading historical data...
Loading historical data...
Loading historical data...
Loading historical data...
Loading historical data...

COSMOS 88 Visibility forecast

Observer location: undefined°, undefined°

Span
Click to sort rows by Start time (UTC) header in descending order
Start Az.
Max El. time (UTC)
Max El. Az.
Max El.
End time (UTC)
End Az.
12 mins2025-05-22 01:51:59.304Z287.072° WNW2025-05-22 01:57:59.304Z244.644° WSW20.586°2025-05-22 02:03:59.304Z203.132° SW
13 mins2025-05-22 14:49:59.304Z180.638° SSW2025-05-22 14:55:59.304Z117.519° SE32.387°2025-05-22 15:02:59.304Z58.315° ENE
14 mins2025-05-22 16:49:59.304Z246.59° WSW2025-05-22 16:55:59.304Z311.33° NW41.005°2025-05-22 17:03:59.304Z40.79° NE
13 mins2025-05-22 18:52:59.304Z295.15° NW2025-05-22 18:58:59.304Z346.841° N26.371°2025-05-22 19:05:59.304Z43.986° NE
14 mins2025-05-22 20:56:59.304Z323.592° NNW2025-05-22 21:02:59.304Z17.448° NNE28.387°2025-05-22 21:10:59.304Z78.049° E
17 mins2025-05-22 22:57:59.304Z318.243° NNW2025-05-22 23:05:59.304Z61.064° ENE43.462°2025-05-22 23:14:59.304Z125.765° SE
9 mins2025-05-23 00:59:59.304Z293.255° NW2025-05-23 01:05:59.304Z242.238° WSW30.053°2025-05-23 01:08:59.304Z209.329° SW
|